#timestamp,LO_Frequency,Hit,StdDev 
1624348815.0,286046998.4,N
1624348815.9,286046998.4,N
1624348835.8,286046998.3,N
1624348855.6,286047000.5,N
1624348875.4,286046998.8,N
1624348895.3,286046998.6,N
1624348915.1,286046998.5,N
1624348935.8,286046999.0,N
1624348955.7,286047000.9,N
1624348975.5,286047000.9,N
1624348995.3,286047000.3,N
1624349015.2,286047001.1,N
1624349035.0,286047000.4,N
1624349035.9,286047000.4,N
1624349055.8,286047000.0,N
1624349075.6,286046999.8,N
1624349095.4,286047002.8,N
1624349115.3,286047000.4,N
1624349135.1,286047000.3,N
1624349155.9,286047000.9,N
1624349175.7,286047000.6,N
1624349195.5,286047000.4,N
1624349215.4,286047000.3,N
1624349235.2,286047000.6,N
1624349255.0,286047001.0,N
1624349255.9,286047001.0,N
1624349275.8,286047001.1,N
1624349295.6,286047000.3,N
1624349315.5,286046999.7,N
1624349335.3,286047000.4,N
1624349355.1,286047002.8,N
1624349375.9,286047001.9,N
1624349395.7,286047002.2,N
1624349415.5,286047002.5,N
1624349435.4,286047002.8,N
1624349455.2,286047002.8,N
1624349475.1,286046999.7,N
1624349476.0,286046999.7,N
1624349495.8,286047000.8,N
1624349515.6,286047000.7,N
1624349535.5,286047001.2,N
1624349555.3,286047000.5,N
1624349575.2,286047000.3,N
1624349595.9,286047000.9,N
1624349615.7,286046999.9,N
1624349635.6,286047000.4,N
1624349655.4,286047000.3,N
1624349675.2,286047000.4,N
1624349695.1,286047000.0,N
1624349696.0,286047000.0,N
1624349715.8,286046998.2,N
1624349735.7,286047000.9,N
1624349755.5,286047000.5,N
1624349775.3,286047001.0,N
1624349795.2,286046998.1,N
1624349815.0,286047001.1,N
1624349815.9,286047001.1,N
1624349835.8,286047000.8,N
1624349855.6,286047000.4,N
1624349875.4,286047000.5,N
1624349895.3,286047000.5,N
1624349915.1,286047000.7,N
1624349935.8,286047001.2,N
1624349955.7,286047000.5,N
1624349975.5,286047001.0,N
1624349995.3,286047000.3,N
1624350015.2,286047002.8,Y
1624350035.0,286047000.4,P
1624350035.9,286047000.4,P
1624350055.8,286047000.1,P
1624350075.6,286047002.7,Y
1624350095.4,286047002.5,P
1624350115.3,286047002.0,N
1624350135.1,286046999.7,N
1624350155.9,286047001.0,N
1624350175.7,286046999.7,N
1624350195.5,286047000.1,N
1624350215.4,286047000.7,N
1624350235.2,286046999.8,N
1624350255.0,286047001.2,N
1624350255.9,286047001.2,N
1624350275.8,286046998.1,N
1624350295.6,286047000.9,N
1624350315.5,286046998.3,N
1624350335.3,286046998.2,N
1624350355.1,286047000.7,N
1624350375.9,286046998.1,N
1624350395.7,286047001.1,N
1624350415.5,286046998.1,N
1624350435.4,286046999.4,N
1624350455.2,286046998.9,N
1624350475.1,286046996.5,N
1624350476.0,286046996.5,N
1624350495.8,286046999.6,N
1624350515.6,286046996.9,N
1624350535.5,286046999.6,N
1624350555.3,286046997.4,N
1624350575.1,286046996.7,N
1624350595.9,286046998.0,N
1624350615.7,286046996.7,N
1624350635.6,286046997.3,N
1624350655.4,286046997.2,N
1624350675.2,286046997.4,N
1624350695.1,286046998.8,N
1624350696.0,286046998.8,N
1624350715.8,286046998.9,N
1624350735.6,286046996.6,N
1624350755.5,286046999.4,N
1624350775.3,286046996.6,N
1624350795.2,286046999.4,N
1624350815.9,286046999.6,N
1624350835.7,286046998.7,N
1624350855.6,286046999.4,N
1624350875.4,286046997.6,N
1624350895.2,286046997.6,N
1624350915.1,286046995.0,Y
1624350916.0,286046995.0,P
1624350935.8,286046999.4,N
1624350955.7,286047001.2,N
1624350975.5,286047000.4,N
1624350995.3,286047001.0,N
1624351015.2,286047000.7,N
1624351035.0,286047001.0,N
1624351035.9,286047001.0,N
1624351055.7,286047001.1,N
1624351075.6,286047000.8,N
1624351095.4,286047000.8,N
1624351115.3,286047000.3,N
1624351135.1,286046998.7,N
1624351136.0,286046998.7,N
1624351155.8,286046998.6,N
1624351175.7,286047000.0,N
1624351195.5,286047002.8,N
1624351215.3,286047000.0,N
1624351235.2,286047000.5,N
1624351255.0,286047000.1,N
1624351255.9,286047000.1,N
1624351275.8,286047002.3,N
1624351295.6,286047000.9,N
1624351315.4,286047001.1,N
1624351335.3,286047000.6,N
1624351355.1,286047001.0,N
1624351375.8,286047001.2,N
1624351395.7,286046998.4,N
1624351415.5,286046999.4,N
1624351435.4,286046997.4,N
1624351455.2,286046996.8,N
1624351475.0,286046997.2,N
1624351475.9,286046997.2,N
1624351495.8,286046994.9,Y
1624351515.6,286046995.4,P
1624351535.5,286046995.0,N
1624351555.3,286046995.2,N
1624351575.1,286046996.1,N
1624351595.9,286046995.5,N
1624351615.7,286046996.3,N
1624351635.5,286046996.4,N
1624351655.4,286046995.9,N
1624351675.2,286046995.1,Y
1624351695.1,286047001.1,P
1624351696.0,286047001.1,N
1624351715.8,286046998.5,N
1624351735.6,286046998.2,N
1624351755.5,286046998.5,N
1624351775.3,286046998.5,N
1624351795.1,286046998.5,N
1624351815.9,286046998.5,N
1624351835.7,286046998.9,N
1624351855.6,286046996.6,N
1624351875.4,286046999.5,N
1624351895.2,286046996.6,N
1624351915.1,286046997.7,N
1624351916.0,286046997.7,N
1624351935.8,286046997.1,N
1624351955.6,286046997.5,N
1624351975.5,286046995.3,Y
1624351995.3,286046996.7,P
1624352015.2,286046999.0,N
1624352035.9,286046998.3,N
1624352055.7,286046999.5,N
1624352075.6,286046998.3,N
1624352095.4,286046998.5,N
1624352115.2,286046999.3,N
1624352135.1,286046999.1,N
1624352136.0,286046999.1,N
1624352155.8,286046996.9,Y
1624352175.7,286046999.0,P
1624352195.5,286046999.3,P
1624352215.3,286046998.9,P
1624352235.2,286046998.9,Y
1624352255.0,286046998.1,P
1624352255.9,286046998.1,P
1624352275.8,286046999.4,N
1624352295.6,286046999.3,N
1624352315.4,286046999.5,N
1624352335.3,286046999.6,N
1624352355.1,286046996.5,Y
1624352375.9,286046998.8,P
1624352395.7,286046998.6,P
